Regional Weather Roundup
Issued by NWS

Home | Current Version | Previous Version | Graphics & Text | Print | Product List | Glossary On
Versions: 1 2 3 4 5 6 7 8 9 10 11 12 13 14 15 16 17 18 19 20 21 22 23 24 25 26 27 28 29 30 31 32 33 34 35 36 37 38 39 40 41 42 43 44 45 46 47 48 49 50
000
ASUS43 KLMK 310110
RWRKY
KENTUCKY REGIONAL WEATHER ROUNDUP
NATIONAL WEATHER SERVICE LOUISVILLE KY
900 PM EDT WED JUL 30 2014

NOTE "FAIR" INDICATES FEW OR NO CLOUDS BELOW 12,000 FEET
WITH NO SIGNIFICANT WEATHER AND/OR OBSTRUCTIONS TO VISIBILITY.

KYZ001>023-026-027-061>063-070>075-310200-
WESTERN AND SOUTH CENTRAL KENTUCKY

CITY           SKY/WX    TMP DP  RH WIND       PRES   REMARKS
PADUCAH        MOCLDY    73  62  68 SW3       30.05F
HENDERSON      MOCLDY    72  61  68 SW6       30.05S
OWENSBORO      MOCLDY    72  60  65 W7        30.06S
HOPKINSVILLE   MOCLDY    74  56  53 NW5       30.07S
BOWLING GREEN  PTCLDY    76  55  48 NW3       30.07S
GLASGOW        MOCLDY    72  56  58 CALM      30.07S
$$

KYZ024-025-028>034-038-045-046-053-310200-
NORTH CENTRAL KENTUCKY

CITY           SKY/WX    TMP DP  RH WIND       PRES   REMARKS
LOUISVILLE/SDF PTCLDY    76  57  51 W7        30.05R
LOUISVILLE/LOU CLEAR     76  56  49 SW5       30.05S
FORT KNOX      PTCLDY    68  64  85 W1        30.05S
$$

KYZ035>037-039>044-047>052-055>060-089>105-310200-
NORTHEAST KENTUCKY

CITY           SKY/WX    TMP DP  RH WIND       PRES   REMARKS
LEXINGTON      CLEAR     72  56  57 CALM      30.07S
COVINGTON      MOCLDY    71  60  68 CALM      30.06R
FRANKFORT      CLEAR     71  59  65 SW3       30.05S
$$

KYZ054-064>069-076>088-106>120-310200-
SOUTHEAST KENTUCKY

CITY           SKY/WX    TMP DP  RH WIND       PRES   REMARKS
JACKSON        CLEAR     70  58  65 CALM      30.10R
LONDON         CLEAR     74  58  57 CALM      30.10R
SOMERSET       CLEAR     70  59  68 W3        30.10R
MIDDLESBORO    PTCLDY    67  61  80 W3        30.10R
MONTICELLO     MOCLDY    67  64  90 CALM      30.10S
$$



USA.gov is the U.S. government's official web portal to all federal, state and local government web resources and services.